Flock 4g-9

operational
NORAD ID: 62622 Int'l Des: 2025-009 Owner: PLAN Country: US Constellation: planet
LEOCIRCULARRETROGRADESSO

关于 Flock 4g-9

正在加载描述...

实时位置

正在加载3D地球...

即将过境

高度历史

Altitude vs Time

uPlot chart will show altitude changes over time

两行轨道根数

1 62622U 25009P 25340.90187781 .00015384 00000-0 63861-3 0 9997
2 62622 97.4149 58.6674 0003752 285.8964 74.1860 15.23926571 49537
Epoch: Dec 6, 2025 • Age: 15 hours

当前状态

高度 507.9 km
速度 7.61 km/s
星下点 -39.30°S, 35.16°W
发射日期 Jan 14, 2025
运行时间 0.8 years
类型 earth observation

技术详情

分类 Payload
质量 5.70 kg
干质量 5.70 kg
总质量 5.70 kg
长度 0.30 m
直径 0.10 m
跨度 0.30 m
形状 Box+2 pan
制造商 PLAN
平台类型 Cubesat 3U
阶段状态 In Orbit
所有者/国家 PLAN/US

大型星座

Loading constellations...